Location: La Oliva
(42.2466°N, 2.9955°E)
Time: 10:35:34
(UTC+00:00)

Terra - Pass Details

Date: 22 April 2021
Orbit: 701 x 703 km, 98.2° (Epoch: 10 May)

Event Time Altitude Azimuth Distance (km) Brightness Sun altitude
Exits shadow 22:42:44 23° 293° (WNW) 1,497 3.8 -33.3°
Drops below altitude 10° 22:45:19 10° 322° (NW) 2,177 5.1 -33.5°
Sets 22:47:56 0° 335° (NNW) 3,100 6.2 -33.6°
